Lake Charles Regional, LA

12:25 AM CST on December 11, 2019 (GMT -0600)
Lake Charles Regional

Weather History for KLCH - November, 2019

Change the Weather History Date:

Tuesday, November 19, 2019

  Actual Average Record
Temperature  
Mean Temperature 61 °F 60 °F  
Max Temperature 79 °F 70 °F 89 °F (1915)
Min Temperature 43 °F 50 °F 30 °F (1920)
Degree Days  
Heating Degree Days 4 6  
Month to date heating degree days 185 84  
Since 1 July heating degree days 216 120  
Cooling Degree Days 0 1  
Month to date cooling degree days 15 43  
Year to date cooling degree days 3217 2776  
Growing Degree Days 11 (Base 50)    
Moisture  
Dew Point 50 °F    
Average Humidity 80    
Maximum Humidity 100    
Minimum Humidity 37    
Precipitation  
Precipitation T in 0.14 in 1.89 in (1976)
Month to date precipitation 0.14 2.86  
Year to date precipitation 63.56 51.24  
Snow  
Snow - 0.00 in 0.00 in ()
Month to date snowfall 0.0 0.0  
Since 1 July snowfall 0.0 0.0  
Since 1 September snowfall 0.0 0.0  
Snow Depth 0.00 in    
Sea Level Pressure  
Sea Level Pressure 30.03 in    
Wind  
Wind Speed 1 mph ()    
Max Wind Speed 10 mph    
Max Gust Speed 14 mph    
Visibility 6.1 miles    
Events Fog    
T = Trace of Precipitation, MM = Missing Value Source: Averaged Metar Reports

Daily Weather History Graph

Daily Weather History Graph

Search for Another Location

Airport or City:

Astronomy

Nov. 19, 2019 Rise Set
Actual Time 6:41 AM CST 5:14 PM CST
Civil Twilight 6:15 AM CST 5:40 PM CST
Nautical Twilight 5:46 AM CST 6:09 PM CST
Astronomical Twilight 5:18 AM CST 6:38 PM CST
Moon No Moon Rise 12:55 PM CST (11/19)
Length of Visible Light 11h 24m
Length of Day
10h 33m
Waning Gibbous, 51% of the Moon is Illuminated
Nov 19
Waning Gibbous
Nov 19
Last Quarter
Nov 26
New
Dec 4
First Quarter
Dec 11
Full

Hourly Weather History & Observations

Time (CST) Temp. Dew Point Humidity Pressure Visibility Wind Dir Wind Speed Gust Speed Precip Events Conditions
12:53 AM 46.0 °F 42.1 °F 86% 29.98 in 10.0 mi Calm Calm - N/A   Clear
1:53 AM 45.0 °F 42.1 °F 90% 29.98 in 10.0 mi Calm Calm - N/A   Clear
2:53 AM 44.1 °F 41.0 °F 89% 29.99 in 10.0 mi Calm Calm - 0.00 in   Clear
3:53 AM 44.1 °F 41.0 °F 89% 29.99 in 9.0 mi Calm Calm - 0.00 in   Clear
4:53 AM 43.0 °F 39.9 °F 89% 30.00 in 10.0 mi Calm Calm - N/A   Clear
6:53 AM 44.1 °F 42.1 °F 93% 30.03 in 8.0 mi Calm Calm - N/A   Clear
8:53 AM 61.0 °F 55.0 °F 81% 30.05 in 8.0 mi Calm Calm - N/A   Clear
9:53 AM 68.0 °F 55.9 °F 65% 30.06 in 10.0 mi WSW 4.6 mph - N/A   Clear
10:53 AM 72.0 °F 54.0 °F 53% 30.06 in 10.0 mi West 3.5 mph - N/A   Clear
11:53 AM 75.9 °F 52.0 °F 43% 30.04 in 10.0 mi West 6.9 mph - N/A   Clear
12:53 PM 75.9 °F 48.9 °F 38% 30.01 in 10.0 mi SW 4.6 mph - N/A   Clear
1:53 PM 78.1 °F 50.0 °F 37% 29.99 in 10.0 mi South 4.6 mph - N/A   Clear
2:53 PM 75.9 °F 52.0 °F 43% 30.00 in 10.0 mi SW 6.9 mph - N/A   Clear
3:53 PM 72.0 °F 55.9 °F 57% 30.02 in 10.0 mi SSW 6.9 mph - N/A   Clear
4:53 PM 68.0 °F 57.0 °F 68% 30.03 in 10.0 mi SSW 6.9 mph - N/A   Clear
5:53 PM 62.1 °F 57.0 °F 84% 30.03 in 10.0 mi Calm Calm - N/A   Clear
6:53 PM 61.0 °F 57.0 °F 87% 30.05 in 7.0 mi Calm Calm - N/A   Clear
7:35 PM 57.9 °F 55.9 °F 93% 30.03 in 1.8 mi Calm Calm - N/A   Clear
7:44 PM 55.9 °F 55.0 °F 97% 30.03 in 0.8 mi Calm Calm - N/A   Mist
7:53 PM 55.0 °F 53.1 °F 93% 30.06 in 0.2 mi Calm Calm - N/A Fog Fog
8:21 PM 55.9 °F 55.0 °F 97% 30.04 in 0.2 mi Calm Calm - N/A Fog Fog
8:53 PM 54.0 °F 52.0 °F 93% 30.06 in 0.2 mi Calm Calm - N/A Fog Fog
9:53 PM 53.1 °F 51.1 °F 93% 30.07 in 0.2 mi Calm Calm - N/A Fog Fog
10:14 PM 50.0 °F 50.0 °F 100% 30.05 in 0.2 mi Calm Calm - N/A Fog Fog
10:27 PM 51.1 °F 48.9 °F 92% 30.05 in 0.2 mi Calm Calm - N/A Fog Fog
10:53 PM 50.0 °F 48.0 °F 93% 30.07 in 0.2 mi South 3.5 mph - N/A Fog Fog
11:22 PM 48.9 °F 48.0 °F 97% 30.04 in 1.0 mi Calm Calm - N/A   Mist
11:43 PM 48.9 °F 48.0 °F 97% 30.04 in 5.0 mi Calm Calm - N/A   Partly Cloudy
11:53 PM 50.0 °F 46.9 °F 89% 30.07 in 6.0 mi Calm Calm - N/A   Partly Cloudy